151  
ASUS44 KOUN 020210  
RWROK  
 
WEATHER ROUNDUP FOR OKLAHOMA  
NATIONAL WEATHER SERVICE NORMAN OK  
900 PM CDT SUN AUG 01 2021  
 
NOTE: "FAIR" INDICATES FEW OR NO CLOUDS BELOW 12,000 FEET WITH NO  
SIGNIFICANT WEATHER AND/OR S TO VISIBILITY
.  
 
OKZ001>007-009>012-014-015-017-020300-  
NORTHWEST OKLAHOMA AND THE PANHANDLE  
 
CITY SKY/WX TMP DP RH WIND PRES REMARKS
 
GAGE PTCLDY 74 67 78 E3 30.19R HAZE  
GUYMON PTCLDY 73 63 70 N6 30.24S  
ENID/WOODRING PTCLDY 77 66 69 E3 30.10S  

 
 
OKZ016-021>023-033>039-044-045-020300-  
SOUTHWEST OKLAHOMA  
 
CITY SKY/WX TMP DP RH WIND PRES REMARKS
 
LAWTON/REGL CLOUDY 80 67 64 NE8 30.09R  
LAWTON/FT SILL CLOUDY 79 69 70 NE7 30.09R  
FREDERICK LGT RAIN 74 72 93 N7 30.08R  
CLINTON CLEAR 75 63 66 MISG 30.16R  
HOBART PTCLDY 75 64 68 NE8 30.13R  
ALTUS AFB CLOUDY 77 67 71 NE7 30.10R  

 
 
OKZ018>020-024>031-020300-  
CENTRAL OKLAHOMA  
 
CITY SKY/WX TMP DP RH WIND PRES REMARKS
 
OKLAHOMA CITY PTCLDY 78 64 61 NE10 30.10R  
OKC/WILEY POST CLEAR 80 64 58 NE10 30.10R  
OKC/TINKER AFB CLEAR 75 65 70 NE8 30.09R  
STILLWATER PTCLDY 75 66 73 NE3 30.10R  
GUTHRIE PTCLDY 74 68 81 NE5 30.10S  

 
 
OKZ008-013-054>072-020300-  
NORTHEAST OKLAHOMA  
 
CITY SKY/WX TMP DP RH WIND PRES REMARKS
 
TULSA MOCLDY 81 67 62 NE5 30.06R  
TULSA/JONES MOCLDY 81 68 64 N6 30.07R  
PONCA CITY CLEAR 73 65 75 MISG 30.11R  
BARTLESVILLE CLEAR 71 69 93 CALM 30.10R  
MUSKOGEE PTCLDY 78 65 63 N9 30.06R  

 
 
OKZ032-040>043-046>053-073>077-020300-  
SOUTH CENTRAL/SOUTHEAST OKLAHOMA  
 
CITY SKY/WX TMP DP RH WIND PRES REMARKS
 
ARDMORE/DWNTWN CLOUDY 81 71 72 NE6 30.06R  
MCALESTER CLEAR 81 66 60 N10 30.05R  

 
 
 
 
CLICK HERE TO GO TO PREVIOUS BULLETINS.

The Nexlab OK Page Main Text Page